AMC-14

Last updated on Sun Apr 12 2026 00:02:51 GMT+0000 (Coordinated Universal Time)

1 32708U 08011A 26100.88828853 .00000084 00000+0 00000+0 0 9999 2 32708 23.9275 21.3321 0048952 357.3865 187.9047 1.00336777 67493
UTC large
Height (km)
Speed (km/s)
/
Latitude / Longitude
Inclination (degrees)
Orbital Period (minutes)
Azimuth
Elevation
Range (km)
Doppler Factor

Next 0 passes for location: London (51.5072 / 0.1276)

Sorry there are no passes over London.
AMC-14